Weather in Oktyabr'skoye

Russia / Khanty-Mansi Autonomous Okrug — Yugra     62°27′24″N   66°02′31″E
temp.,
°C
wind,
m/s
gust,
m/s
humid.,
%
clouds,
%
prec.,
mm/h
press.,
hPa
HPBL,
m
23 september, thu
thu2323:00+4nw139092 0.0 102591
02:00+4w2390100 0.0 1025112
05:00+4wnw278993 0.0 1025263
08:00+3nw288980 0.0 1026231
11:00+8nw467090 0.0 1025749
14:00+10nw46536 0.0 10251134
17:00+8nnw366290 0.0 1025585
20:00+3nne2285100 0.0 102520
24 september, fri
fri2423:00+3n1188100 0.0 102611
02:00+3nnw118779 0.0 102510
05:00+1n11925 0.0 102610
08:00+3n118367 0.0 102640
11:00+9nw12595 0.0 1026530
14:00+11nw22465 0.0 1026949
17:00+9n11573 0.0 102613
20:00+3ene22775 0.0 102715
25 september, sat
sat2523:00+2ene11820 0.0 102811
02:00+1e11895 0.0 102810
05:000ene21930 0.0 102912
08:00+2e138558 0.0 1029106
11:00+7se346234 0.0 1029682
14:00+9se345473 0.0 10291236
17:00+8ese36625 0.0 1029556
20:00+3ese398367 0.0 1030225
26 september, sun
sun2623:00+1ese298953 0.0 1032202
02:00−1ese289013 0.0 1032171
05:00−1ese27925 0.0 1033152
08:00+1se28815 0.0 1034243
11:00+5se46605 0.0 1034740
14:00+7se46515 0.0 10341057
17:00+6se36605 0.0 1034357
20:00+1e23845 0.0 103463
27 september, mon
mon2723:00−1ese24900 0.0 103577
02:00−2ese22920 0.0 103625
05:00−2e22930 0.0 103733
08:000e24835 0.0 1037146
11:00+5se24595 0.0 1036704
14:00+8se23515 0.0 10351169
17:00+6e11645 0.0 103422
20:00+1ene22845 0.0 103422